Regional Weather Roundup
Issued by NWS

Home | Current Version | Previous Version | Graphics & Text | Print | Product List | Glossary On
Versions: 1 2 3 4 5 6 7 8 9 10 11 12 13 14 15 16 17 18 19 20 21 22 23 24 25 26 27 28 29 30 31 32 33 34 35 36 37 38 39 40 41 42 43 44 45 46 47 48 49 50
000
ASUS43 KOAX 240802
RWRNE

WEATHER ROUNDUP FOR NEBRASKA
NATIONAL WEATHER SERVICE OMAHA NE
300 AM CDT SAT SEP 24 2016

NOTES: SATELLITE DATA IS BEING USED TO AUGMENT CLOUD COVER ABOVE
       12000 FEET.
       "FAIR" INDICATES FEW OR NO CLOUDS BELOW 12,000 FEET WITH NO
       SIGNIFICANT WEATHER AND/OR OBSTRUCTIONS TO VISIBILITY.

  * THESE STATIONS DO NOT REPORT WEATHER SUCH AS RAIN...SNOW OR FOG.

NEZ001>004-019>022-054>056-240900-
NEBRASKA PANHANDLE

CITY           SKY/WX    TMP DP  RH WIND       PRES   REMARKS
SCOTTSBLUFF    CLOUDY    50  49  96 W10       29.91F
ALLIANCE       CLOUDY    49  45  86 NW12      29.84F
CHADRON        CLOUDY    51  46  83 SW9       29.86S
KIMBALL        LGT RAIN  45  40  81 W32G38    30.00R
SIDNEY         LGT RAIN  49  46  90 W17G24    29.95R
$$

NEZ057>060-069>072-079>082-240900-
SOUTHWEST NEBRASKA

CITY           SKY/WX    TMP DP  RH WIND       PRES   REMARKS
NORTH PLATTE   CLOUDY    68  63  84 SE8       29.80F
IMPERIAL       CLOUDY    58  50  75 N13       29.84S
LEXINGTON      MOCLDY    72  63  73 S16       29.83S
MCCOOK         PTCLDY    73  56  54 SW15      29.82R
OGALLALA       MOCLDY    56  50  81 N17G28    29.81F
$$

NEZ005>010-023>029-035>040-094-240900-
NORTH CENTRAL NEBRASKA

CITY           SKY/WX    TMP DP  RH WIND       PRES   REMARKS
VALENTINE      PTCLDY    57  50  77 W7        29.84R
AINSWORTH      CLEAR     70  62  74 S18G25    29.80R
BROKEN BOW     CLEAR     68  62  81 SE10      29.84S
O`NEILL        CLEAR     72  62  70 SE16G25   29.85F
ORD            LGT RAIN  72  62  71 SE17G24   29.83F
THEDFORD       RAIN      70  61  73 W28G35    29.86R
$$

NEZ041-046>049-061>064-073>077-083>087-240900-
SOUTH CENTRAL NEBRASKA

CITY           SKY/WX    TMP DP  RH WIND       PRES   REMARKS
GRAND ISLAND   CLEAR     71  63  75 SE14      29.88F
AURORA         MOCLDY    71  64  78 SE13      29.90F
HASTINGS       CLEAR     72  63  73 SE12      29.89F
HEBRON         MOCLDY    72  64  74 SE10      29.92F
HOLDREGE       PTCLDY    71  63  75 S14G22    29.85S
KEARNEY *      PTCLDY    72  63  73 SE16      29.84F
YORK           MOCLDY    72  63  73 S13       29.92F
$$

NEZ011>018-030>034-042>045-240900-
NORTHEAST NEBRASKA

CITY           SKY/WX    TMP DP  RH WIND       PRES   REMARKS
NORFOLK        PTCLDY    71  62  73 SE14      29.91F
ALBION         PTCLDY    72  62  70 SE13G18   29.89F
BLAIR          MOCLDY    74  64  71 SE9       29.96F
FREMONT        PTCLDY    73  63  71 SE10      29.96S
TEKAMAH        MOCLDY    69  64  84 SE6       29.95S
WAYNE          MOCLDY    72  65  77 SE13      29.93F
$$

NEZ050>053-065>068-078-088>093-240900-
SOUTHEAST NEBRASKA

CITY           SKY/WX    TMP DP  RH WIND       PRES   REMARKS
LINCOLN        PTCLDY    73  64  73 S15       29.94S
OMAHA EPPLEY   PTCLDY    73  64  73 SE10      29.96S
BEATRICE       CLEAR     73  64  73 SE10      29.95S
FALLS CITY     PTCLDY    71  65  81 SE7       29.97S
NEBRASKA CITY  CLEAR     69  59  70 SE6       29.98S
PLATTSMOUTH    PTCLDY    71  62  73 SE7       29.98S
$$

NEZ044-045-051>053-067-240900-
OMAHA AREA

CITY           SKY/WX    TMP DP  RH WIND       PRES   REMARKS
OMAHA EPPLEY   PTCLDY    73  64  73 SE10      29.96S
BLAIR          MOCLDY    74  64  71 SE9       29.96F
FREMONT        PTCLDY    73  63  71 SE10      29.96S
MILLARD        PTCLDY    72  65  78 SE5       29.96S
OFFUTT AFB     CLEAR     70  65  84 SE6       29.96S
PLATTSMOUTH    PTCLDY    71  62  73 SE7       29.98S
WAHOO          PTSUNNY   70  64  81 SE7       29.95S
$$




USA.gov is the U.S. government's official web portal to all federal, state and local government web resources and services.